Patterson, LA

9:32 AM CST on November 12, 2019 (GMT -0600)
Williams Memorial

Weather History for KPTN - September, 2019

Change the Weather History Date:

Sunday, September 8, 2019

  Actual Average Record
Temperature  
Mean Temperature 86 °F -  
Max Temperature 93 °F 85 °F 93 °F (2012)
Min Temperature 78 °F 70 °F 57 °F (2011)
Cooling Degree Days 20    
Growing Degree Days 36 (Base 50)    
Moisture  
Dew Point 76 °F    
Average Humidity 79    
Maximum Humidity 100    
Minimum Humidity 49    
Precipitation  
Precipitation 0.00 in - - ()
Sea Level Pressure  
Sea Level Pressure 30.01 in    
Wind  
Wind Speed 3 mph (WNW)    
Max Wind Speed 8 mph    
Max Gust Speed -    
Visibility 10 miles    
Events      
Averages and records for this station are not official NWS values.
T = Trace of Precipitation, MM = Missing Value Source: NWS Daily Summary

Daily Weather History Graph

Daily Weather History Graph

Search for Another Location

Airport or City:

Astronomy

Sep. 08, 2019 Rise Set
Actual Time 6:46 AM CDT 7:19 PM CDT
Civil Twilight 6:22 AM CDT 7:43 PM CDT
Nautical Twilight 5:53 AM CDT 8:11 PM CDT
Astronomical Twilight 5:25 AM CDT 8:40 PM CDT
Moon 4:07 PM CDT (9/8) 1:47 AM CDT (9/8)
Length of Visible Light 13h 21m
Length of Day
12h 33m
Waxing Gibbous, 75% of the Moon is Illuminated
Sep 8
Waxing Gibbous
Sep 13
Full
Sep 21
Last Quarter
Sep 28
New
Oct 5
First Quarter

Hourly Weather History & Observations

Time (CDT) Temp. Heat Index Dew Point Humidity Pressure Visibility Wind Dir Wind Speed Gust Speed Precip Events Conditions
12:56 AM 79.0 °F - 78.1 °F 97% 29.99 in 7.0 mi WSW 3.5 mph - N/A   Clear
1:56 AM 78.1 °F - 78.1 °F 100% 29.99 in 4.0 mi Calm Calm - N/A   Clear
2:56 AM 79.0 °F - 77.0 °F 94% 29.98 in 10.0 mi Calm Calm - N/A   Clear
3:56 AM 79.0 °F - 77.0 °F 94% 29.98 in 10.0 mi NW 3.5 mph - N/A   Clear
4:56 AM 79.0 °F - 77.0 °F 94% 29.99 in 10.0 mi NW 4.6 mph - N/A   Clear
5:56 AM 79.0 °F - 77.0 °F 94% 30.01 in 10.0 mi NW 5.8 mph - N/A   Clear
6:56 AM 79.0 °F - 75.9 °F 90% 30.02 in 10.0 mi WNW 4.6 mph - N/A   Clear
7:56 AM 81.0 °F 88.6 °F 78.1 °F 91% 30.04 in 10.0 mi WNW 4.6 mph - N/A   Clear
8:56 AM 82.9 °F 92.8 °F 78.1 °F 85% 30.04 in 10.0 mi NW 5.8 mph - N/A   Clear
9:56 AM 84.9 °F 97.5 °F 79.0 °F 82% 30.05 in 10.0 mi North 8.1 mph - N/A   Clear
10:56 AM 88.0 °F 100.2 °F 77.0 °F 70% 30.05 in 10.0 mi NW 6.9 mph - N/A   Clear
11:56 AM 91.0 °F 98.2 °F 72.0 °F 53% 30.04 in 10.0 mi North 5.8 mph - N/A   Clear
12:56 PM 93.0 °F 100.1 °F 71.1 °F 49% 30.03 in 10.0 mi Calm Calm - N/A   Clear
1:56 PM 93.9 °F 105.4 °F 75.0 °F 54% 30.01 in 10.0 mi Variable 3.5 mph - N/A   Clear
2:56 PM 91.9 °F 101.3 °F 73.9 °F 55% 29.99 in 10.0 mi Calm Calm - N/A   Partly Cloudy
3:56 PM 93.9 °F 105.4 °F 75.0 °F 54% 29.97 in 10.0 mi Calm Calm - N/A   Scattered Clouds
4:56 PM 91.9 °F 103.9 °F 75.9 °F 59% 29.98 in 10.0 mi WSW 4.6 mph - N/A   Partly Cloudy
5:56 PM 91.0 °F 99.3 °F 73.0 °F 55% 29.98 in 10.0 mi SW 8.1 mph - N/A   Clear
6:56 PM 86.0 °F 93.8 °F 73.9 °F 67% 29.98 in 10.0 mi SSW 4.6 mph - N/A   Clear
7:56 PM 82.9 °F 92.8 °F 78.1 °F 85% 29.99 in 10.0 mi SW 4.6 mph - N/A   Scattered Clouds
8:56 PM 82.0 °F 91.0 °F 78.1 °F 88% 30.00 in 10.0 mi SE 3.5 mph - N/A   Clear
9:56 PM 82.0 °F 90.2 °F 77.0 °F 85% 30.01 in 10.0 mi Calm Calm - N/A   Clear
10:56 PM 79.0 °F - 78.1 °F 97% 30.01 in 10.0 mi Calm Calm - N/A   Clear
11:56 PM 79.0 °F - 78.1 °F 97% 30.01 in 10.0 mi Calm Calm - N/A   Clear